Regional Weather Roundup
Issued by NWS

Home | Current Version | Previous Version | Graphics & Text | Print | Product List | Glossary On
Versions: 1 2 3 4 5 6 7 8 9 10 11 12 13 14 15 16 17 18 19 20 21 22 23 24 25 26 27 28 29 30 31 32 33 34 35 36 37 38 39 40 41 42 43 44 45 46 47 48 49 50
000
ASUS43 KMKX 261500
RWRWI

WISCONSIN REGIONAL WEATHER ROUNDUP
NATIONAL WEATHER SERVICE MILWAUKEE/SULLIVAN WI
1000 AM CDT FRI MAY 26 2017

NOTE: "FAIR" INDICATES FEW OR NO CLOUDS BELOW 12,000 FEET WITH NO
SIGNIFICANT WEATHER AND/OR OBSTRUCTIONS TO VISIBILITY.

WIZ001-002-006>008-014>016-023>028-261600-
NORTHWEST WISCONSIN

CITY           SKY/WX    TMP DP  RH WIND       PRES   REMARKS
SUPERIOR ARPT  NOT AVBL
ASHLAND        CLOUDY    58  53  84 N3        29.76S
HAYWARD        CLOUDY    63  51  65 S9        29.76S
SIREN          CLOUDY    63  53  70 CALM      29.74R
CUMBERLAND     CLOUDY    63  54  72 S10       29.76R
RICE LAKE      CLOUDY    66  54  65 S8        29.77R
CHETEK         CLOUDY    65  55  70 S7        29.77R
LADYSMITH      CLOUDY    65  54  68 S8        29.79S
EAU CLAIRE     NOT AVBL
MENOMONIE      PTSUNNY   67  55  65 SE10      29.77R
NEW RICHMOND   CLOUDY    64  53  68 S12       29.76R
OSCEOLA        CLOUDY    65  56  72 S9        29.77R
$$

WIZ003>005-009-010-017-018-261600-
NORTH CENTRAL WISCONSIN

CITY           SKY/WX    TMP DP  RH WIND       PRES   REMARKS
MANITOWISH WTR CLOUDY    60  58  92 SE7       29.81R
ARBOR VITAE    CLOUDY    59  54  82 S6        29.81S
WOODRUFF       CLOUDY    59  54  82 S6        29.81S
RHINELANDER    CLOUDY    63  56  78 SE5       29.82F
EAGLE RIVER    CLOUDY    60  51  73 S5        29.82S
LAND O LAKES   CLOUDY    61  53  75 S5        29.83F
PHILLIPS       CLOUDY    62  53  73 S7        29.79S
TOMAHAWK       CLOUDY    59  54  85 CALM      29.81F
MEDFORD        MOSUNNY   62  55  76 S10       29.81R
MERRILL        CLOUDY    60  56  88 SE5       29.82F
$$

WIZ029-030-035-036-043>047-261600-
CENTRAL WISCONSIN

CITY           SKY/WX    TMP DP  RH WIND       PRES   REMARKS
WAUSAU         SUNNY     64  56  75 SE7       29.80F
MOSINEE        MOSUNNY   63  57  82 SE6       29.83S
MARSHFIELD     PTSUNNY   64  56  75 SE10      29.80R
STEVENS POINT  MOSUNNY   61  56  84 S7        29.83S
WAUPACA        SUNNY     66  57  72 SE7       29.83S
WAUTOMA        CLOUDY    65  56  72 SE8       29.83S
WISC RAPIDS    MOSUNNY   67  57  70 SE10      29.82F
CAMP DOUGLAS   NOT AVBL
$$

WIZ011>013-019>022-031-037>040-048>050-261600-
NORTHEAST WISCONSIN

CITY           SKY/WX    TMP DP  RH WIND       PRES   REMARKS
ANTIGO         MOSUNNY   61  55  82 SE3       29.83F
SHAWANO        PTSUNNY   65  55  70 SE6       29.84F
OCONTO         CLOUDY    61  54  76 CALM      29.85S
STURGEON BAY   CLOUDY    58  54  86 NE6       29.87R
GREEN BAY      SUNNY     63  57  81 E9        29.84F
MANITOWOC      NOT AVBL
APPLETON       NOT AVBL
CLINTONVILLE   MOSUNNY   63  54  72 S7        29.84S
OSHKOSH        CLOUDY    63  54  72 E8        29.83S
$$

WIZ032>034-041-042-053>061-261600-
SOUTHWEST WISCONSIN

CITY           SKY/WX    TMP DP  RH WIND       PRES   REMARKS
LA CROSSE      MOSUNNY   70  58  65 VRB3      29.77F
SPARTA         CLOUDY    68  57  68 S7        29.79F
VIROQUA        MOSUNNY   65  55  70 MISG      29.80S
BOSCOBEL       CLOUDY    68  56  65 S3        29.78F
PRAIRIE DU CHI CLOUDY    65  54  66 SE5       29.76S
PLATTEVILLE    CLOUDY    65  59  82 SE10      29.80S
$$

WIZ056-057-062-063-064-067-068-261600-
SOUTH CENTRAL WISCONSIN

CITY           SKY/WX    TMP DP  RH WIND       PRES   REMARKS
REEDSBURG      MOSUNNY   67  58  72 SE3       29.80S
BARABOO/DELLS  MOSUNNY   67  55  66 SE8       29.80S
LONE ROCK      CLOUDY    67  58  72 E7        29.79S
MINERAL POINT  CLOUDY    64  59  82 SE9       29.80S
MADISON        PTSUNNY   67  57  70 SE9       29.81S
MIDDLETON      MOSUNNY   67  57  69 SE10      29.81F
WATERTOWN      CLOUDY    64  57  76 SE8       29.84S
MONROE         CLOUDY    64  55  72 SE15      29.81R
JANESVILLE     MOSUNNY   70  57  64 SE10      29.81F
$$

WIZ051-052-058>065-066-070>072-261600-
SOUTHEAST WISCONSIN

CITY           SKY/WX    TMP DP  RH WIND       PRES   REMARKS
MILWAUKEE      PTSUNNY   58  54  86 E6        29.88S
WAUKESHA       SUNNY     63  54  72 SE9       29.87R
MILWAUKEE/TIMM SUNNY     59  50  72 E7        29.88R
RACINE         CLOUDY    57  51  80 E5        29.90R
KENOSHA        SUNNY     60  53  77 E9        29.87S
FOND DU LAC    LGT RAIN  66  53  63 SE8       29.84S
SHEBOYGAN      CLOUDY    59  55  87 E7        29.86S
WEST BEND      CLOUDY    61  54  77 E5        29.86R
JUNEAU         CLOUDY    62  55  79 E9        29.85S
$$

LSZ147-162-261600-
LAKE SUPERIOR

STATION/POSITION TIME  TEMP    WIND        PRES    WAVE
                       AIR SEA DIR/SP/G            HT/PER
                 (UTC) (F)     (DEG/KT/KT) (MB)    (FT/S)
W MID LAKE BUOY  1350   41 37  130/  6/  8 1008.8S   1
DEVILS ISLAND    1400   55      80/  8/  8 1007.8F
PORT WING        1440   43     360/  2/  4 1007.5S
SAXON HARBOR     1440   49     320/  1/  3 1007.8R
$$

LMZ867-665-643>646-261600-
LAKE MICHIGAN

STATION/POSITION TIME  TEMP    WIND        PRES    WAVE
                       AIR SEA DIR/SP/G            HT/PER
                 (UTC) (F)     (DEG/KT/KT) (MB)    (FT/S)
CHAMBERS ISLAND  1440   56     210/  3/  6 1010.8R
N MID LAKE BUOY  1350   44 41  310/  4/  4 1011.6F   0
NORTHPORT PIER   1440   51     120/  4/  5 1010.8S
SISTER BAY       1251   60        CALM       N/A
KEWAUNEE LAKESHO 1430   50     140/  4/  6 1011.2R
SHEBOYGAN LAKESH 1400   48      70/  6/  7 1011.3S
PORT WASHINGTON  1440   49     120/  3/  4 1012.5S
ATWATER BUOY     1309   47      CALM  /  2 1011.7R
MILWAUKEE LAKESH 1430   48     120/  2/  2   N/A
S MID LAKE BUOY  1350   45 45   30/  8/ 10 1011.5S   1/ 4
KENOSHA   LAKESH 1400   49      CALM  /  2 1011.9
$$

TC  - TEMPERATURE IN CELSIUS
VSB - VISIBILITY IN STATUTE MILES
WCI - WIND CHILL INDEX
HX  - HEAT INDEX





USA.gov is the U.S. government's official web portal to all federal, state and local government web resources and services.